"Pseudo-MPEC" for A115V9v

Created 2024 May 8 13:22:02 UT using Find_Orb

Click here for an explanation of pseudo-MPECs

 
 Astrometry: 
     A115V9v* C2024 04 18x2vSEdAstrometryj:!#_ENfredacted;JjH-click3X%-R)$/XKW68
     A115V9v  C2024 04 18]Hk5ZhiY,3Mb73aey2UGsCRP2[.un42%GPGj/.$6p;#WZ#Ci$2^IW68
     A115V9v  C2024 04 18=J*KER_1n?YxfIat'xDB!VXEF]2ueOFIUEnWJ36IT90(A.M=hereW68
     A115V9v  C2024 04 18d)fortB(tYx`Ucj!gEC9Wm'Gp5a'=\iexplanationDySMMP0!/.W68

Station data:
(W68) ATLAS Chile, Rio Hurtado  (S30.471010 W70.764980)  Chile.  Observers L.
   Denneau, R. Siverd, J. Tonry, H. Weiland. Measurers L. Denneau, N.
   Erasmus, A. Fitzsimmons, A. Lawrence, J. Robinson, R. Siverd, J. Tonry, H.
   Weiland. 0.5-m reflector + CCD.

Orbital elements:  A115V9v
   Perigee 2024 Apr 17.70887 +/- 8.08 TT = 17:00:46 (JD 2460418.20887)
Epoch 2024 Apr 18.0 TT = JDT 2460418.5                           AutoNEOCP
q551033.124 +/- 4.06e+6             (J2000 equator)
H   26.74 G 0.15                    Peri.  168.57418 +/- 10
                                    Node   337.36155 +/- 0.18
e 248.9671109 +/- 0.267             Incl.   59.47803 +/- 4.1
From 4 observations 2024 Apr. 18 (27.7 min); mean residual 2".37
Residuals in arcseconds: 
240418 W68  2.1+  3.2-    240418 W68  2.6-  3.9+    
240418 W68  .82-  1.3+    240418 W68  1.4+  2.0-    

Ephemerides (geocentric):
Date (UTC) HH   RA             Dec           delta  r     elong  mag " sig PA
---- --------  ------------   ------------  ------ ------ -----  --- --------
2024 05 08 13  14 52 58.677   -55 40 13.44  .16330 1.1418 141.5 24.5 903' 107
2024 05 08 14  14 52 59.489   -55 39 54.81  .16364 1.1421 141.5 24.5 903' 107
2024 05 08 15  14 53 00.299   -55 39 36.14  .16398 1.1424 141.5 24.5 903' 107
2024 05 08 16  14 53 01.107   -55 39 17.41  .16431 1.1427 141.5 24.5 903' 107
2024 05 08 17  14 53 01.912   -55 38 58.64  .16465 1.1430 141.6 24.5 903' 107
2024 05 08 18  14 53 02.715   -55 38 39.83  .16499 1.1433 141.6 24.5 903' 107
2024 05 08 19  14 53 03.515   -55 38 20.96  .16532 1.1437 141.6 24.5 903' 107
2024 05 08 20  14 53 04.313   -55 38 02.05  .16566 1.1440 141.6 24.5 903' 107
2024 05 08 21  14 53 05.109   -55 37 43.09  .16600 1.1443 141.6 24.5 903' 107
2024 05 08 22  14 53 05.902   -55 37 24.08  .16633 1.1446 141.6 24.5 903' 107
2024 05 08 23  14 53 06.693   -55 37 05.03  .16667 1.1449 141.7 24.5 903' 107
2024 05 09 00  14 53 07.481   -55 36 45.93  .16701 1.1452 141.7 24.5 903' 107
2024 05 09 01  14 53 08.268   -55 36 26.78  .16734 1.1455 141.7 24.5 903' 107
2024 05 09 02  14 53 09.052   -55 36 07.59  .16768 1.1459 141.7 24.5 903' 107
2024 05 09 03  14 53 09.834   -55 35 48.35  .16802 1.1462 141.7 24.5 904' 107
2024 05 09 04  14 53 10.614   -55 35 29.06  .16836 1.1465 141.7 24.6 904' 107
2024 05 09 05  14 53 11.392   -55 35 09.73  .16869 1.1468 141.7 24.6 904' 107
2024 05 09 06  14 53 12.168   -55 34 50.36  .16903 1.1471 141.8 24.6 904' 107
2024 05 09 07  14 53 12.942   -55 34 30.94  .16937 1.1474 141.8 24.6 904' 107
2024 05 09 08  14 53 13.714   -55 34 11.47  .16971 1.1478 141.8 24.6 904' 107
2024 05 09 09  14 53 14.483   -55 33 51.96  .17004 1.1481 141.8 24.6 904' 107
2024 05 09 10  14 53 15.251   -55 33 32.40  .17038 1.1484 141.8 24.6 904' 107
2024 05 09 11  14 53 16.017   -55 33 12.80  .17072 1.1487 141.8 24.6 904' 107
2024 05 09 12  14 53 16.782   -55 32 53.15  .17106 1.1490 141.8 24.6 904' 107
2024 05 09 13  14 53 17.544   -55 32 33.46  .17140 1.1493 141.9 24.6 904' 107
2024 05 09 14  14 53 18.304   -55 32 13.73  .17173 1.1497 141.9 24.6 904' 107
2024 05 09 15  14 53 19.063   -55 31 53.95  .17207 1.1500 141.9 24.6 904' 107
2024 05 09 16  14 53 19.820   -55 31 34.13  .17241 1.1503 141.9 24.6 904' 107
2024 05 09 17  14 53 20.575   -55 31 14.26  .17275 1.1506 141.9 24.6 904' 107
2024 05 09 18  14 53 21.329   -55 30 54.35  .17309 1.1509 141.9 24.6 904' 107
2024 05 09 19  14 53 22.081   -55 30 34.39  .17342 1.1512 141.9 24.6 904' 107
2024 05 09 20  14 53 22.831   -55 30 14.39  .17376 1.1516 142.0 24.6 904' 107
2024 05 09 21  14 53 23.580   -55 29 54.35  .17410 1.1519 142.0 24.6 904' 107
2024 05 09 22  14 53 24.327   -55 29 34.27  .17444 1.1522 142.0 24.6 905' 107
2024 05 09 23  14 53 25.072   -55 29 14.14  .17478 1.1525 142.0 24.6 905' 107
2024 05 10 00  14 53 25.816   -55 28 53.97  .17512 1.1528 142.0 24.6 905' 107
2024 05 10 01  14 53 26.558   -55 28 33.76  .17546 1.1532 142.0 24.6 905' 107
2024 05 10 02  14 53 27.299   -55 28 13.50  .17580 1.1535 142.0 24.6 905' 107
2024 05 10 03  14 53 28.039   -55 27 53.20  .17613 1.1538 142.1 24.6 905' 107
2024 05 10 04  14 53 28.777   -55 27 32.86  .17647 1.1541 142.1 24.7 905' 107
2024 05 10 05  14 53 29.514   -55 27 12.48  .17681 1.1544 142.1 24.7 905' 107
2024 05 10 06  14 53 30.249   -55 26 52.05  .17715 1.1548 142.1 24.7 905' 107
2024 05 10 07  14 53 30.983   -55 26 31.59  .17749 1.1551 142.1 24.7 905' 107
2024 05 10 08  14 53 31.716   -55 26 11.08  .17783 1.1554 142.1 24.7 905' 107
2024 05 10 09  14 53 32.447   -55 25 50.53  .17817 1.1557 142.1 24.7 905' 107
2024 05 10 10  14 53 33.177   -55 25 29.94  .17851 1.1560 142.2 24.7 905' 107
2024 05 10 11  14 53 33.906   -55 25 09.30  .17885 1.1564 142.2 24.7 905' 107
2024 05 10 12  14 53 34.634   -55 24 48.63  .17919 1.1567 142.2 24.7 905' 107